Location: Hamburg
(53.5500°N, 10.0000°E)
Time: 09:23:15
(UTC+01:00)

ISS - Visible Passes

Search period start: 22 January 2018 00:00
Search period end: 01 February 2018 00:00
Orbit: 402 x 407 km, 51.6° (Epoch: 22 January)

Date Brightness Start Highest point End Pass type
(mag) Time Alt. Az. Time Alt. Az. Time Alt. Az.
26 Jan -1.2 18:56:05 10° S 18:56:24 11° SSE 18:56:24 11° SSE visible
27 Jan -1.2 19:38:19 10° SW 19:39:05 15° SSW 19:39:05 15° SSW visible
28 Jan -2.2 18:46:29 10° SSW 18:49:01 21° SSE 18:49:02 21° SSE visible
29 Jan -1.6 17:54:58 10° S 17:56:52 15° SE 17:58:45 10° ESE visible
29 Jan -2.2 19:29:38 10° SW 19:31:34 29° SSW 19:31:34 29° SSW visible
30 Jan -2.8 18:37:30 10° SW 18:40:28 32° SSE 18:41:23 27° ESE visible
30 Jan -0.7 20:13:26 10° WSW 20:14:02 14° WSW 20:14:02 14° WSW visible
31 Jan -2.2 17:45:32 10° SSW 17:48:13 24° SSE 17:50:55 10° E visible
31 Jan -3.1 19:21:05 10° WSW 19:23:48 48° SSW 19:23:48 48° SSW visible
